Weather History for Austin, TX

Change the Weather History Date:

Wednesday, July 31, 2013

  Actual Average Record
Temperature  
Mean Temperature 89 °F 86 °F  
Max Temperature 102 °F 97 °F 106 °F (1923)
Min Temperature 75 °F 75 °F 66 °F (1916)
Degree Days  
Heating Degree Days 0 0  
Month to date heating degree days 0 0  
Since 1 June heating degree days 0 0  
Since 1 July heating degree days 0 0  
Cooling Degree Days 24 21  
Month to date cooling degree days 649 620  
Year to date cooling degree days 1885 1749  
Since 1 June cooling degree days 1261 1136  
Growing Degree Days 38 (Base 50)    
Moisture  
Dew Point 67 °F    
Average Humidity 55    
Maximum Humidity 87    
Minimum Humidity 23    
Precipitation  
Precipitation 0.00 in 0.06 in 1.00 in (1892)
Month to date precipitation 2.91 1.88  
Year to date precipitation 17.51 19.74  
Snow  
Snow 0.00 in - - ()
Month to date snowfall 0.0  
Since 1 June snowfall 0.0  
Since 1 July snowfall 0.0  
Snow Depth 0.00 in    
Sea Level Pressure  
Sea Level Pressure 30.01 in    
Wind  
Wind Speed 4 mph (South)    
Max Wind Speed 10 mph    
Max Gust Speed 17 mph    
Visibility 10 miles    
Events      
T = Trace of Precipitation, MM = Missing Value Source: NWS Daily Summary

Daily Weather History Graph

Daily Weather History Graph

Search for Another Location

Airport:

Trip Planner

Search our weather history database for the weather conditions in past years. The results will help you decide how hot, cold, wet, or windy it might be!

Date:

Astronomy

Jul. 31, 2013 Rise Set
Actual Time 6:49 AM CDT 8:25 PM CDT
Civil Twilight 6:22 AM CDT 8:51 PM CDT
Nautical Twilight 5:51 AM CDT 9:22 PM CDT
Astronomical Twilight 5:18 AM CDT 9:55 PM CDT
Moon 1:45 AM CDT (7/31) 3:41 PM CDT (7/31)
Length of Visible Light 14h 28m
Length of Day
13h 36m
Waning Crescent, 31% of the Moon is Illuminated
Jul 31
Waning Crescent
Aug 6
New
Aug 14
First Quarter
Aug 20
Full
Aug 28
Last Quarter

Hourly Weather History & Observations

Time (CDT) Temp. Heat Index Dew Point Humidity Pressure Visibility Wind Dir Wind Speed Gust Speed Precip Events Conditions
12:51 AM 80.1 °F 83.6 °F 71.1 °F 74% 30.03 in 10.0 mi Variable 5.8 mph - N/A   Clear
1:51 AM 79.0 °F - 72.0 °F 79% 30.03 in 10.0 mi Variable 6.9 mph - N/A   Clear
2:12 AM 79.0 °F - 72.0 °F 79% 30.07 in 10.0 mi Variable 6.9 mph - N/A   Mostly Cloudy
2:44 AM 78.1 °F - 72.0 °F 81% 30.07 in 10.0 mi South 5.8 mph - N/A   Mostly Cloudy
2:51 AM 78.1 °F - 72.0 °F 81% 30.02 in 10.0 mi South 5.8 mph - N/A   Mostly Cloudy
3:46 AM 78.8 °F - 71.6 °F 78% 30.07 in 10.0 mi Variable 6.9 mph - N/A   Overcast
3:51 AM 78.1 °F - 72.0 °F 81% 30.02 in 10.0 mi Variable 4.6 mph - N/A   Overcast
4:32 AM 77.0 °F - 72.0 °F 84% 30.07 in 10.0 mi Variable 5.8 mph - N/A   Scattered Clouds
4:51 AM 77.0 °F - 72.0 °F 84% 30.02 in 10.0 mi Variable 4.6 mph - N/A   Mostly Cloudy
5:21 AM 77.0 °F - 72.0 °F 84% 30.07 in 10.0 mi Variable 6.9 mph - N/A   Scattered Clouds
5:51 AM 75.9 °F - 72.0 °F 87% 30.03 in 10.0 mi Variable 4.6 mph - N/A   Partly Cloudy
6:51 AM 75.0 °F - 72.0 °F 90% 30.04 in 9.0 mi SSW 4.6 mph - N/A   Scattered Clouds
7:51 AM 75.9 °F - 71.1 °F 85% 30.06 in 9.0 mi Variable 5.8 mph - N/A   Partly Cloudy
8:31 AM 79.0 °F - 71.1 °F 77% 30.11 in 10.0 mi Variable 3.5 mph - N/A   Mostly Cloudy
8:51 AM 79.0 °F - 71.1 °F 77% 30.07 in 10.0 mi Variable 5.8 mph - N/A   Mostly Cloudy
9:06 AM 80.1 °F 83.6 °F 71.1 °F 74% 30.12 in 10.0 mi SSW 6.9 mph - N/A   Partly Cloudy
9:51 AM 82.9 °F 86.5 °F 69.1 °F 63% 30.07 in 10.0 mi South 8.1 mph - N/A   Clear
10:51 AM 87.1 °F 90.6 °F 68.0 °F 53% 30.06 in 10.0 mi Variable 5.8 mph - N/A   Clear
11:51 AM 91.9 °F 94.5 °F 66.0 °F 42% 30.05 in 10.0 mi Variable 5.8 mph - N/A   Clear
12:51 PM 95.0 °F 96.0 °F 63.0 °F 34% 30.03 in 10.0 mi Calm Calm - N/A   Clear
1:51 PM 98.1 °F 97.2 °F 57.9 °F 26% 30.00 in 10.0 mi Variable 3.5 mph - N/A   Clear
2:51 PM 100.9 °F 100.5 °F 57.9 °F 24% 29.98 in 10.0 mi Variable 3.5 mph - N/A   Clear
3:51 PM 100.9 °F 101.6 °F 60.1 °F 26% 29.96 in 10.0 mi SW 4.6 mph - N/A   Clear
4:51 PM 102.0 °F 101.1 °F 57.0 °F 22% 29.94 in 10.0 mi Variable 3.5 mph - N/A   Clear
5:51 PM 100.9 °F 99.6 °F 55.9 °F 22% 29.91 in 10.0 mi North - - N/A   Clear
6:51 PM 100.0 °F 99.2 °F 57.0 °F 24% 29.90 in 10.0 mi Variable 4.6 mph - N/A   Clear
7:51 PM 97.0 °F 96.1 °F 57.9 °F 27% 29.90 in 10.0 mi ESE 3.5 mph - N/A   Clear
8:51 PM 93.9 °F 93.6 °F 60.1 °F 32% 29.91 in 10.0 mi ESE 3.5 mph - N/A   Clear
9:51 PM 91.0 °F 91.5 °F 62.1 °F 38% 29.93 in 10.0 mi Calm Calm - N/A   Clear
10:51 PM 88.0 °F 88.7 °F 63.0 °F 43% 29.94 in 10.0 mi Calm Calm - N/A   Clear
11:51 PM 87.1 °F 88.9 °F 64.9 °F 48% 29.95 in 10.0 mi South 6.9 mph - N/A   Clear